User: anonymous   Login
Location: Newark
(51.2625°N, 13.3939°E)
Time: 12:31:55
(UTC+00:00)
Language:

Vanguard 2 Rocket - Orbit

View from above orbital plane
View from above orbital plane
View from above satellite
View from above satellite

Ground track
Ground track

The orbit data is extracted from the following two-line orbital elements,

1    12U 59001B   19325.54283396 +.00000039 +00000-0 +30243-4 0  9996
2    12 032.9011 001.8682 1666058 057.6137 317.4886 11.44315346256043
Epoch (UTC): 21 November 2019 13:01:40
Eccentricity: 0.1666058
inclination: 32.9011°
perigee height: 554 km
apogee height: 3326 km
right ascension of ascending node: 1.8682°
argument of perigee: 57.6137°
revolutions per day: 11.44315346
mean anomaly at epoch: 317.4886°
orbit number at epoch: 25604

The dashed part of the orbit path shows where the satellite is in the earth's shadow,  

DLR